[[{"header":{"parameterUnit":"m.s-1","parameterCategory":1,"la1":30.2991,"la2":30.254,"lo1":-89.0895,"lo2":-89.0444,"dy":0.0017,"dx":0.0017,"nx":28,"ny":28,"refTime":"2026-02-08T03:00:00:Z","depth":0,"parameterNumber":2,"parameterNumberName":"U-component_of_WINDS"},"data":[0,0,0,0,0,0,0,0,0,0,0,0,0,0,0,0,0,0,0,0,0,0,0,0,0,0,0,0,0,0,0,0,0,0,0,0,0,0,0,0,0,0,0,0,0,0,0,0,0,0,0,0,0,0,0,0,0,0,-2.4262,-2.4262,0,-2.4276,-2.4276,-2.4276,-2.4174,-2.4172,-2.4169,-2.4166,-2.4181,-2.4184,-2.4187,0,0,0,0,0,0,0,0,0,0,0,0,0,-2.415,-2.4152,-2.4262,-2.4262,-2.4262,-2.4275,-2.4276,-2.4276,-2.4175,-2.4171,-2.4168,-2.4165,-2.418,-2.4184,-2.4188,0,0,0,0,0,0,0,0,0,0,0,0,0,-2.4184,-2.4153,-2.4262,-2.4213,-2.4209,-2.4275,-2.4276,-2.4276,-2.4176,-2.4171,-2.4167,-2.4163,-2.4179,-2.4184,-2.4188,-2.4302,0,0,-2.4202,-2.4204,0,0,0,0,0,0,0,0,-2.4183,-2.4189,-2.422,-2.4217,-2.4212,-2.4219,-2.4242,-2.4285,-2.4177,-2.4188,-2.4166,-2.4161,-2.4197,-2.42,-2.4212,-2.4303,-2.4303,-2.4203,-2.4205,-2.4207,-2.4209,0,0,0,0,0,0,0,-2.418,-2.4187,-2.4267,-2.4221,-2.4216,-2.4191,-2.4192,-2.4249,-2.4217,-2.4187,-2.418,-2.4183,-2.4194,-2.4208,-2.4212,-2.4304,-2.4203,-2.4207,-2.4209,-2.4211,-2.449,-2.4494,0,0,0,0,0,0,-2.4184,-2.4186,-2.4267,-2.4268,-2.4186,-2.4197,-2.4197,-2.4221,-2.4216,-2.4211,-2.4186,-2.4178,-2.4202,-2.4207,-2.4212,-2.4346,-2.4207,-2.4212,-2.4214,-2.4485,-2.4491,-2.4496,0,0,0,0,0,0,-2.4182,-2.4192,-2.4266,-2.4225,-2.4232,-2.4203,-2.4231,-2.4224,-2.4237,-2.4215,-2.4209,-2.4206,-2.4199,-2.4206,-2.4281,-2.4345,-2.4214,-2.4218,-2.448,-2.4487,-2.4493,-2.4615,0,0,0,0,0,0,-2.4179,-2.4192,-2.4235,-2.4227,-2.4235,-2.4335,-2.4235,-2.4227,-2.4245,-2.4234,-2.4232,-2.4228,-2.4196,-2.4274,-2.4285,-2.4349,-2.4221,-2.4474,-2.4483,-2.4491,-2.4606,-2.4626,-2.4643,0,0,0,0,0,-2.4176,-2.4268,-2.4237,-2.4248,-2.4288,-2.4338,-2.4343,-2.4305,-2.4251,-2.4294,-2.428,-2.4228,-2.4336,-2.4283,-2.4294,-2.4361,-2.447,-2.448,-2.4491,-2.4597,-2.4622,-2.4642,0,0,0,0,0,0,-2.4285,-2.4266,-2.4232,-2.4325,-2.4334,-2.4321,-2.4374,-2.4332,-2.4357,-2.4346,-2.4297,-2.4297,-2.4381,-2.4378,-2.4319,-2.4471,-2.4394,-2.4407,-2.4471,-2.4494,-2.4512,-2.4512,-2.4225,0,0,0,0,0,-2.432,-2.4363,-2.4344,-2.4428,-2.4434,-2.4404,-2.4424,-2.4394,-2.4402,-2.4405,-2.4396,-2.4407,-2.4443,-2.4468,-2.45,-2.4604,-2.4603,-2.4655,-2.4674,-2.469,-2.4702,-2.4759,-2.4782,-2.453,-2.453,-2.453,0,0,-2.4393,-2.4388,-2.4417,-2.445,-2.4453,-2.4499,-2.4408,-2.446,-2.4494,-2.4413,-2.4484,-2.4478,-2.4486,-2.4577,-2.4616,-2.4577,-2.4771,-2.4703,-2.4715,-2.472,-2.4772,-2.4796,-2.4817,-2.4537,-2.4536,-2.4535,0,0,-2.4549,-2.4549,-2.4619,-2.4625,-2.4631,-2.4611,-2.4628,-2.4622,-2.4615,-2.4685,-2.4626,-2.4666,-2.4729,-2.4738,-2.475,-2.4911,-2.4865,-2.4923,-2.5021,-2.5077,-2.5097,-2.5114,-2.5173,-2.5195,-2.4935,-2.4935,-2.4935,0,-2.4639,-2.4705,-2.4661,-2.4717,-2.4734,-2.4663,-2.4735,-2.4742,-2.4759,-2.4773,-2.4728,-2.4807,-2.4807,-2.4899,-2.4939,-2.4951,-2.497,-2.4923,-2.5097,-2.5114,-2.513,-2.5186,-2.5208,-2.4942,-2.4941,-2.4941,-2.494,0,-2.4816,-2.4863,-2.4919,-2.4937,-2.496,-2.5024,-2.499,-2.5019,-2.4986,-2.4971,-2.5044,-2.5042,-2.5073,-2.5092,-2.5061,-2.5181,-2.5156,-2.5105,-2.5026,-2.5162,-2.5213,-2.5234,-2.4952,-2.495,-2.4948,-2.4946,0,0,-2.5042,-2.5035,-2.5057,-2.5065,-2.5068,-2.5103,-2.5164,-2.5195,-2.5221,-2.5235,-2.5286,-2.5341,-2.5294,-2.5309,-2.5278,-2.5327,-2.5456,-2.527,-2.5269,-2.5306,-2.5591,-2.5631,-2.5656,-2.5425,-2.5429,-2.5432,-2.5591,0,-2.5195,-2.5299,-2.5262,-2.5369,-2.5412,-2.5346,-2.5399,-2.5407,-2.5394,-2.543,-2.5415,-2.5456,-2.539,-2.5399,-2.5444,-2.5431,-2.5513,-2.5419,-2.5474,-2.5476,-2.5476,-2.5682,-2.5724,-2.5874,-2.561,-2.5614,-2.5616,0,-2.5389,-2.5411,-2.5523,-2.5519,-2.5536,-2.5584,-2.561,-2.5644,-2.5652,-2.5639,-2.5656,-2.5615,-2.5676,-2.5596,-2.568,-2.5617,-2.5637,-2.5634,-2.5639,-2.5644,-2.5556,-2.5695,-2.5921,-2.5944,-2.5647,-2.5645,-2.5642,0,-2.5545,-2.5603,-2.5677,-2.5686,-2.5683,-2.5719,-2.5719,-2.5723,-2.5744,-2.5766,-2.578,-2.5809,-2.5825,-2.5849,-2.5818,-2.5762,-2.5907,-2.5824,-2.5899,-2.59,-2.5934,-2.5932,-2.6168,-2.5944,-2.5944,-2.5943,-2.5943,0,-2.5721,-2.5793,-2.5747,-2.5793,-2.5871,-2.5828,-2.5907,-2.5899,-2.5904,-2.5948,-2.5891,-2.5934,-2.5889,-2.5928,-2.5903,-2.5977,-2.5985,-2.5977,-2.597,-2.5983,-2.5985,-2.5997,-2.5986,-2.5949,-2.5948,-2.5947,-2.5946,0,-2.5909,-2.5882,-2.5959,-2.595,-2.5949,-2.6007,-2.6,-2.6042,-2.6025,-2.6082,-2.6093,-2.6067,-2.611,-2.608,-2.6123,-2.6107,-2.6204,-2.6182,-2.6202,-2.6197,-2.6274,-2.6268,-2.6527,-2.656,-2.6314,-2.6316,-2.6318,0,-2.6025,-2.6078,-2.6075,-2.61,-2.6104,-2.6146,-2.6167,-2.6127,-2.6151,-2.6165,-2.6207,-2.6245,-2.6273,-2.6345,-2.633,-2.6363,-2.6342,-2.6431,-2.6347,-2.6359,-2.6346,-2.6344,-2.635,-2.6448,-2.6451,-2.6454,-2.6455,0,-2.6233,-2.6217,-2.625,-2.6279,-2.6306,-2.6326,-2.6342,-2.6367,-2.6326,-2.6356,-2.64,-2.6422,-2.6466,-2.6505,-2.6532,-2.6533,-2.6489,-2.6482,-2.6501,-2.6516,-2.6526,-2.6524,-2.625,-2.6476,-2.6474,-2.6473,-2.6472,-2.6471,-2.6389,-2.6434,-2.6439,-2.6478,-2.6486,-2.6503,-2.6543,-2.6531,-2.6566,-2.6599,-2.6573,-2.6625,-2.6632,-2.6665,-2.6671,-2.6712,-2.6676,-2.6704,-2.6711,-2.6719,-2.6731,-2.6519,-2.6717,-2.6716,-2.6716,-2.6715,-2.6715,0,-2.6596,-2.6596,-2.6632,-2.6657,-2.6688,-2.6642,-2.6658,-2.6687,-2.6734,-2.6744,-2.6774,-2.6824,-2.6862,-2.6851,-2.6885,-2.692,-2.6901,-2.693,-2.6928,-2.693,-2.676,-2.6741,-2.6946,-2.6946,-2.6946,-2.6946,-2.6946,-2.6946,-2.6708,-2.6782,-2.6766,-2.6844,-2.6844,-2.6894,-2.6908,-2.6923,-2.6931,-2.699,-2.7022,-2.7014,-2.7016,-2.705,-2.7083,-2.7079,-2.7095,-2.7133,-2.7122,-2.6964,-2.6941,-2.692,-2.6901,-2.7136,-2.7136,-2.7287,-2.7289,-2.729]},{"header":{"parameterUnit":"m.s-1","parameterCategory":1,"la1":30.2991,"la2":30.254,"lo1":-89.0895,"lo2":-89.0444,"dy":0.0017,"dx":0.0017,"nx":28,"ny":28,"refTime":"2026-02-08T03:00:00:Z","depth":0,"parameterNumber":3,"parameterNumberName":"V-component_of_WINDS"},"data":[0,0,0,0,0,0,0,0,0,0,0,0,0,0,0,0,0,0,0,0,0,0,0,0,0,0,0,0,0,0,0,0,0,0,0,0,0,0,0,0,0,0,0,0,0,0,0,0,0,0,0,0,0,0,0,0,0,0,-0.742,-0.7421,0,-0.7485,-0.7486,-0.7487,-0.7537,-0.7538,-0.7538,-0.7539,-0.7604,-0.7605,-0.7606,0,0,0,0,0,0,0,0,0,0,0,0,0,-0.7338,-0.7339,-0.742,-0.7421,-0.7422,-0.7485,-0.7486,-0.7487,-0.7537,-0.7538,-0.7538,-0.7539,-0.7603,-0.7605,-0.7606,0,0,0,0,0,0,0,0,0,0,0,0,0,-0.7385,-0.734,-0.742,-0.7455,-0.7458,-0.7485,-0.7486,-0.7487,-0.7537,-0.7538,-0.7538,-0.7539,-0.7603,-0.7605,-0.7606,-0.7603,0,0,-0.7612,-0.7613,0,0,0,0,0,0,0,0,-0.7383,-0.7388,-0.7449,-0.7452,-0.7457,-0.7504,-0.7481,-0.7526,-0.7537,-0.7507,-0.7539,-0.754,-0.757,-0.7574,-0.7585,-0.7606,-0.7609,-0.7612,-0.7614,-0.7614,-0.7615,0,0,0,0,0,0,0,-0.7379,-0.7386,-0.7446,-0.745,-0.7454,-0.7466,-0.7474,-0.749,-0.7533,-0.751,-0.7514,-0.7521,-0.7572,-0.7583,-0.7587,-0.761,-0.7612,-0.7614,-0.7615,-0.7616,-0.7631,-0.7631,0,0,0,0,0,0,-0.7371,-0.7383,-0.7444,-0.7448,-0.7421,-0.7467,-0.7476,-0.7488,-0.7533,-0.7541,-0.752,-0.7523,-0.7579,-0.7585,-0.7589,-0.7588,-0.7614,-0.7616,-0.7617,-0.7632,-0.7631,-0.763,0,0,0,0,0,0,-0.7369,-0.7376,-0.7441,-0.7416,-0.7426,-0.7468,-0.7481,-0.7489,-0.75,-0.7541,-0.7549,-0.7523,-0.758,-0.7587,-0.7599,-0.7591,-0.7617,-0.7619,-0.7633,-0.7632,-0.7631,-0.7586,0,0,0,0,0,0,-0.7366,-0.7375,-0.7375,-0.7416,-0.7427,-0.7451,-0.7481,-0.749,-0.7503,-0.7507,-0.7546,-0.7553,-0.7581,-0.7596,-0.7601,-0.7594,-0.762,-0.7634,-0.7632,-0.7631,-0.7588,-0.7583,-0.7579,0,0,0,0,0,-0.7363,-0.7359,-0.7374,-0.7382,-0.7427,-0.745,-0.7456,-0.7489,-0.7502,-0.7502,-0.7528,-0.7552,-0.7591,-0.7597,-0.7603,-0.7596,-0.7635,-0.7633,-0.7631,-0.759,-0.7584,-0.7579,0,0,0,0,0,0,-0.7316,-0.7365,-0.7383,-0.7392,-0.7416,-0.7459,-0.7459,-0.7481,-0.7502,-0.7505,-0.7544,-0.7553,-0.7561,-0.758,-0.7586,-0.7595,-0.7616,-0.7615,-0.7582,-0.7577,-0.7573,-0.7567,-0.7622,0,0,0,0,0,-0.7306,-0.7321,-0.7364,-0.7368,-0.7379,-0.7417,-0.7428,-0.7451,-0.7478,-0.7488,-0.7515,-0.754,-0.7558,-0.7569,-0.7587,-0.7591,-0.76,-0.7589,-0.7585,-0.7581,-0.758,-0.7582,-0.7578,-0.7625,-0.7625,-0.7625,0,0,-0.7287,-0.7316,-0.7323,-0.7359,-0.738,-0.7394,-0.7425,-0.7439,-0.7449,-0.749,-0.7504,-0.7524,-0.7554,-0.7562,-0.7567,-0.7578,-0.7569,-0.7579,-0.7575,-0.7576,-0.758,-0.7575,-0.7571,-0.7624,-0.7624,-0.7624,0,0,-0.7259,-0.7283,-0.7288,-0.7309,-0.7341,-0.7366,-0.7368,-0.7406,-0.7422,-0.7436,-0.7467,-0.7479,-0.7509,-0.7529,-0.7543,-0.7521,-0.7543,-0.7526,-0.7502,-0.7504,-0.75,-0.7497,-0.7488,-0.7485,-0.7525,-0.7525,-0.7525,0,-0.7231,-0.7253,-0.7288,-0.73,-0.7314,-0.7352,-0.7357,-0.7376,-0.7412,-0.7421,-0.7433,-0.7471,-0.7494,-0.7506,-0.7501,-0.7511,-0.7513,-0.7522,-0.7498,-0.7495,-0.7493,-0.7485,-0.7482,-0.7522,-0.7523,-0.7523,-0.7523,0,-0.7216,-0.7231,-0.7232,-0.7266,-0.7281,-0.7289,-0.7324,-0.7335,-0.7356,-0.7379,-0.7393,-0.7422,-0.7446,-0.7451,-0.7472,-0.7466,-0.7472,-0.7491,-0.7512,-0.7485,-0.7478,-0.7476,-0.7519,-0.752,-0.7521,-0.7521,0,0,-0.716,-0.7213,-0.7213,-0.7228,-0.7266,-0.7278,-0.7288,-0.7312,-0.732,-0.7343,-0.7352,-0.7376,-0.7393,-0.7409,-0.7432,-0.7434,-0.7413,-0.7452,-0.7453,-0.7443,-0.7408,-0.7393,-0.7389,-0.7428,-0.7428,-0.7428,-0.7405,0,-0.7137,-0.7157,-0.7188,-0.7197,-0.7211,-0.7247,-0.7255,-0.7279,-0.73,-0.7315,-0.7339,-0.7355,-0.7377,-0.7386,-0.739,-0.7415,-0.7407,-0.7417,-0.7436,-0.7436,-0.7427,-0.7386,-0.7371,-0.7348,-0.7402,-0.7402,-0.7402,0,-0.7113,-0.7135,-0.7145,-0.7181,-0.7188,-0.7195,-0.7219,-0.7233,-0.726,-0.7276,-0.7293,-0.7318,-0.7329,-0.7349,-0.7364,-0.7371,-0.738,-0.7393,-0.7393,-0.7396,-0.7417,-0.7386,-0.7341,-0.7337,-0.7398,-0.7398,-0.7399,0,-0.707,-0.7102,-0.7112,-0.7124,-0.7167,-0.7171,-0.7188,-0.7216,-0.7229,-0.725,-0.7258,-0.728,-0.7292,-0.7308,-0.7338,-0.735,-0.7349,-0.7372,-0.7362,-0.7361,-0.736,-0.736,-0.7315,-0.7367,-0.7367,-0.7367,-0.7367,0,-0.7041,-0.7046,-0.7093,-0.7099,-0.7105,-0.7141,-0.7145,-0.7167,-0.7191,-0.7201,-0.7233,-0.7242,-0.7282,-0.7295,-0.7319,-0.7327,-0.7333,-0.7345,-0.7351,-0.7342,-0.734,-0.7348,-0.735,-0.7366,-0.7367,-0.7367,-0.7367,0,-0.6994,-0.7026,-0.7039,-0.7078,-0.7088,-0.709,-0.7124,-0.713,-0.7154,-0.7166,-0.7171,-0.7208,-0.7225,-0.7257,-0.7283,-0.7299,-0.7302,-0.7314,-0.7293,-0.7297,-0.7285,-0.7285,-0.7243,-0.7239,-0.7294,-0.7294,-0.7293,0,-0.6973,-0.6977,-0.7017,-0.7026,-0.7042,-0.7057,-0.707,-0.7105,-0.7116,-0.7147,-0.715,-0.717,-0.7187,-0.7213,-0.7241,-0.7261,-0.7273,-0.7257,-0.7276,-0.7266,-0.7271,-0.727,-0.7271,-0.7252,-0.7251,-0.7251,-0.725,0,-0.6932,-0.6947,-0.6964,-0.6987,-0.7001,-0.702,-0.7041,-0.7046,-0.7086,-0.7097,-0.7115,-0.7129,-0.7155,-0.7174,-0.7198,-0.7216,-0.7239,-0.7244,-0.7242,-0.7233,-0.722,-0.7226,-0.728,-0.7245,-0.7245,-0.7245,-0.7246,-0.7246,-0.6897,-0.6902,-0.693,-0.6948,-0.6967,-0.6986,-0.6994,-0.7018,-0.7034,-0.7058,-0.7078,-0.7094,-0.712,-0.7155,-0.7171,-0.7183,-0.7195,-0.7193,-0.7192,-0.7191,-0.7187,-0.7219,-0.7188,-0.7188,-0.7188,-0.7188,-0.7189,0,-0.6857,-0.6877,-0.6893,-0.692,-0.6934,-0.6955,-0.6979,-0.6989,-0.7003,-0.7025,-0.7042,-0.7062,-0.708,-0.711,-0.713,-0.7134,-0.7145,-0.7138,-0.7138,-0.7142,-0.7176,-0.7175,-0.7129,-0.7129,-0.7129,-0.7129,-0.7129,-0.7129,-0.6838,-0.6847,-0.6866,-0.6885,-0.6904,-0.692,-0.6932,-0.6949,-0.6967,-0.6988,-0.7003,-0.7023,-0.7048,-0.707,-0.7087,-0.7096,-0.7101,-0.7091,-0.7102,-0.7134,-0.7139,-0.7145,-0.7144,-0.7092,-0.7092,-0.7067,-0.7066,-0.7066]}]]